This is the latest recevied weather packets stored in our database for station/object DB0WUN-13. If no packets are shown the sender has not sent any weather packets the latest 10 day(s).
| Time | Temp. | Humidity | Pressure | Rain* | Wind** | Luminosity | Snow |
|---|---|---|---|---|---|---|---|
| 1777012293 | 9.44° C | 49% | 1019.8 hPa | 0 mm | - | 387 W/m² | - |
| 1777012235 | 9.44° C | 50% | 1019.9 hPa | 0 mm | - | 383 W/m² | - |
| 1777012175 | 8.89° C | 51% | 1019.9 hPa | 0 mm | - | 378 W/m² | - |
| 1777012114 | 8.89° C | 51% | 1019.9 hPa | 0 mm | - | 374 W/m² | - |
| 1777012051 | 8.33° C | 57% | 1019.9 hPa | 0 mm | - | 373 W/m² | - |
| 1777011989 | 8.33° C | 61% | 1019.9 hPa | 0 mm | - | 371 W/m² | - |
| 1777011929 | 7.78° C | 66% | 1019.9 hPa | 0 mm | - | 369 W/m² | - |
| 1777011865 | 7.78° C | 71% | 1019.9 hPa | 0 mm | - | 359 W/m² | - |
| 1777011803 | 7.22° C | 71% | 1020 hPa | 0 mm | - | 343 W/m² | - |
| 1777011740 | 7.22° C | 72% | 1019.9 hPa | 0 mm | - | 332 W/m² | - |
| 1777011682 | 7.22° C | 72% | 1019.9 hPa | 0 mm | - | 334 W/m² | - |
| 1777011622 | 7.22° C | 73% | 1020 hPa | 0 mm | - | 329 W/m² | - |
| 1777011565 | 7.22° C | 73% | 1020 hPa | 0 mm | - | 292 W/m² | - |
| 1777011498 | 6.67° C | 73% | 1019.9 hPa | 0 mm | - | 345 W/m² | - |
| 1777011438 | 6.67° C | 72% | 1019.9 hPa | 0 mm | - | 341 W/m² | - |
| 1777011378 | 6.67° C | 73% | 1019.9 hPa | 0 mm | - | 338 W/m² | - |
| 1777011321 | 6.67° C | 74% | 1019.9 hPa | 0 mm | - | 336 W/m² | - |
| 1777011263 | 6.67° C | 74% | 1019.9 hPa | 0 mm | - | 332 W/m² | - |
| 1777011193 | 6.67° C | 74% | 1019.9 hPa | 0 mm | - | 327 W/m² | - |
| 1777011131 | 6.67° C | 74% | 1019.9 hPa | 0 mm | - | 323 W/m² | - |
| 1777011073 | 6.11° C | 75% | 1019.9 hPa | 0 mm | - | 322 W/m² | - |
| 1777011018 | 6.11° C | 76% | 1020 hPa | 0 mm | - | 318 W/m² | - |
| 1777010953 | 6.11° C | 75% | 1020 hPa | 0 mm | - | 316 W/m² | - |
| 1777010891 | 6.11° C | 76% | 1019.9 hPa | 0 mm | - | 309 W/m² | - |
| 1777010833 | 6.11° C | 76% | 1019.9 hPa | 0 mm | - | 308 W/m² | - |
* Rain latest hour (hover to see other rain measurements)
** Current wind speed in m/s (hover to see current wind gust speed)